• Processing (Info)

  • MPEC 2019-P98 : 2019 PN2

    The following Minor Planet Electronic Circular may be linked-to from your own Web pages, but must not otherwise be redistributed electronically.

    A form allowing access to any MPEC is at the bottom of this page.


    Read MPEC 2019-P97 Read MPEC 2019-P99


    M.P.E.C. 2019-P98                                Issued 2019 August 13, 18:46 UT  
    
         The Minor Planet Electronic Circulars contain information on unusual
             minor planets and routine data on comets.  They are published
        on behalf of Division F of the International Astronomical Union by the
              Minor Planet Center, Smithsonian Astrophysical Observatory,
                              Cambridge, MA 02138, U.S.A.
    
                 Prepared using the Tamkin Foundation Computer Network
    
                                  MPC@CFA.HARVARD.EDU
                URL https://www.minorplanetcenter.net/    ISSN 1523-6714
    
                                    2019 PN2                                 
    
    
    Observations:
         K19P02N* C2019 08 05.59535 03 51 34.973+13 12 28.82         21.3 wUEP098F51
         K19P02N  C2019 08 05.60120 03 51 35.162+13 12 20.44         21.4 wUEP098F51
         K19P02N  C2019 08 05.60702 03 51 35.353+13 12 12.13         21.1 wUEP098F51
         K19P02N  C2019 08 05.61285 03 51 35.533+13 12 03.86         21.4 wUEP098F51
         K19P02N  C2019 08 08.59253 03 53 11.351+11 58 05.52         21.1 wUEP098F51
         K19P02N  C2019 08 08.59833 03 53 11.521+11 57 56.63         21.1 wUEP098F51
         K19P02N  C2019 08 08.60414 03 53 11.692+11 57 47.70         21.1 wUEP098F51
         K19P02N  C2019 08 08.60995 03 53 11.866+11 57 38.70         21.0 wUEP098F51
         K19P02N KC2019 08 11.37744603 54 32.56 +10 43 47.5          21.0 VuEP098H21
         K19P02N KC2019 08 11.38141903 54 32.67 +10 43 40.7          20.9 VuEP098H21
         K19P02N KC2019 08 11.38403503 54 32.75 +10 43 36.2          20.9 VuEP098H21
         K19P02N ^C2019 08 13.60957403 55 31.409+09 40 22.53         20.89GVEP098568
         K19P02N ^C2019 08 13.61119403 55 31.448+09 40 19.67         20.85GVEP098568
         K19P02N ^C2019 08 13.61273003 55 31.484+09 40 16.92         20.86GVEP098568
    
    Observer details:
    568 Mauna Kea.  Observers R. Wainscoat, L. Wells, T. Burdullis.  
        Measurers R. Weryk, R. Wainscoat.  
        3.6-m Canada-France-Hawaii Telescope + CCD.
    F51 Pan-STARRS 1, Haleakala.  Observers J. Bulger, T. Lowe, A. Schultz,
        M. Willman.  Measurers K. Chambers, S. Chastel, T. de Boer, L. Denneau,
        J. Fairlamb, H. Flewelling, M. Huber, C.-C. Lin, E. Magnier, Y. Ramanjooloo,
        R. Wainscoat, R. Weryk.  1.8-m Ritchey-Chretien + CCD.
    H21 Astronomical Research Observatory, Westfield.  Observer R. Holmes.  
        Measurers S. Foglia, L. Buzzi, T. Linder, R. Holmes.  
        0.76-m f/3.0 astrograph + CCD.
    
    Orbital elements:
    2019 PN2
    Epoch 2019 Apr. 27.0 TT = JDT 2458600.5                 MPC
    M 358.69637              (2000.0)            P               Q
    n   0.00739524     Peri.  221.80225     +0.76021209     -0.37996130
    a  26.0916232      Node   214.91844     +0.43980704     -0.29602915
    e   0.9230023      Incl.  112.98128     -0.47817083     -0.87635390
    P 133.28           H   16.5           G   0.15           U   4
    Residuals in seconds of arc
    190805 F51  0.0   0.0     190808 F51  0.0   0.0     190811 H21  0.1+  0.0
    190805 F51  0.0   0.0     190808 F51  0.0   0.0     190813 568  0.0   0.0
    190805 F51  0.0   0.0     190808 F51  0.0   0.0     190813 568  0.0   0.1-
    190805 F51  0.1-  0.1+    190811 H21  0.1-  0.4+    190813 568  0.0   0.1-
    190808 F51  0.0   0.1-    190811 H21  0.1-  0.2+
    
    Ephemeris:
    2019 PN2                 a,e,i = 26.09, 0.92, 113                q = 2.0090
    Date    TT    R. A. (2000) Decl.     Delta      r    Elong.  Phase     V
    2019 07 14    03 35 37.0 +20 12 20   2.7399  2.3054    54.6    21.1    21.5
    ...
    2019 07 29    03 46 53.7 +15 58 25   2.4121  2.2273    67.3    24.9    21.3
    ...
    2019 08 06    03 51 48.3 +13 02 47   2.2301  2.1896    74.5    26.5    21.1
    ...
    2019 08 12    03 54 49.4 +10 26 31   2.0931  2.1633    80.1    27.5    21.0
    2019 08 13    03 55 15.7 +09 58 06   2.0703  2.1591    81.1    27.6    21.0
    2019 08 14    03 55 40.9 +09 28 57   2.0476  2.1549    82.0    27.7    21.0
    ...
    2019 08 20    03 57 45.3 +06 17 22   1.9132  2.1310    87.9    28.3    20.8
    ...
    2019 08 28    03 59 06.7 +01 10 41   1.7415  2.1021    96.0    28.6    20.6
    ...
    2019 09 12    03 55 33.3 -11 40 33   1.4677  2.0578   111.2    27.1    20.1
    
    A. U. Tomatic                (C) Copyright 2019 MPC           M.P.E.C. 2019-P98
    


    Read MPEC 2019-P97 Read MPEC 2019-P99


    MPEC number:

    Enter an MPEC number in one of the following forms:

    • 1997-B01 (the full form)
    • J97B01 (the packed version of the full form)
    • B01 (the abbreviated form)